Regional Weather Roundup
Issued by NWS

Home | Current Version | Previous Version | Text Only | Print | Product List | Glossary On
Versions: 1 2 3 4 5 6 7 8 9 10 11 12 13 14 15 16 17 18 19 20 21 22 23 24 25 26 27 28 29 30 31 32 33 34 35 36 37 38 39 40 41 42 43 44 45 46 47 48 49 50
000
ASUS44 KOUN 290210
RWROK

WEATHER ROUNDUP FOR OKLAHOMA
NATIONAL WEATHER SERVICE NORMAN OK
900 PM CDT SAT MAY 28 2016

NOTE: "FAIR" INDICATES FEW OR NO CLOUDS BELOW 12,000 FEET WITH NO
      SIGNIFICANT WEATHER AND/OR OBSTRUCTIONS TO VISIBILITY.

OKZ001>007-009>012-014-015-017-290300-
NORTHWEST OKLAHOMA AND THE PANHANDLE

CITY           SKY/WX    TMP DP  RH WIND       PRES   REMARKS
GAGE           CLEAR     74  51  44 E8        30.00R
GUYMON         PTCLDY    73  47  39 SE7       30.00R
ENID/WOODRING  CLEAR     75  57  53 CALM      29.96R
$$

OKZ016-021>023-033>039-044-045-290300-
SOUTHWEST OKLAHOMA

CITY           SKY/WX    TMP DP  RH WIND       PRES   REMARKS
LAWTON/REGL    CLEAR     77  66  68 NE5       29.96R
LAWTON/FT SILL CLEAR     77  66  70 E5        29.96R
CLINTON        CLEAR     74  54  49 SE7       30.01R
HOBART         CLEAR     76  60  57 SE7       29.99R
ALTUS AFB      CLEAR     74  62  67 E7        29.96R
$$

OKZ018>020-024>031-290300-
CENTRAL OKLAHOMA

CITY           SKY/WX    TMP DP  RH WIND       PRES   REMARKS
OKLAHOMA CITY  CLEAR     71  64  78 SE7       29.98R
OKC/WILEY POST CLEAR     78  64  61 SE8       29.98R
OKC/TINKER AFB CLEAR     73  65  77 E3        29.98R
STILLWATER     CLEAR     74  63  68 SE6       29.97R
GUTHRIE        CLEAR     75  65  70 SE6       29.97R
$$

OKZ008-013-054>072-290300-
NORTHEAST OKLAHOMA

CITY           SKY/WX    TMP DP  RH WIND       PRES   REMARKS
TULSA          CLEAR     77  65  66 S5        29.96R
TULSA/JONES    CLEAR     71  66  84 CALM      29.97R
PONCA CITY     CLEAR     76  60  57 SE6       29.96R
BARTLESVILLE   CLEAR     68  63  84 CALM      29.98R
MUSKOGEE       CLEAR     74  67  78 CALM      29.98R
$$

OKZ032-040>043-046>053-073>077-290300-
SOUTH CENTRAL/SOUTHEAST OKLAHOMA

CITY           SKY/WX    TMP DP  RH WIND       PRES   REMARKS
ARDMORE/DWNTWN MOCLDY    75  68  78 CALM      29.97S
MCALESTER      PTCLDY    75  68  78 SE3       29.99R
$$





USA.gov is the U.S. government's official web portal to all federal, state and local government web resources and services.